This is the latest recevied weather packets stored in our database for station/object KI5GCD-13. If no packets are shown the sender has not sent any weather packets the latest 1 day(s).
| Time | Temp. | Humidity | Pressure | Rain* | Wind** | Luminosity | Snow |
|---|---|---|---|---|---|---|---|
| 1778027687 | 8.89° C | 91% | 1005.9 hPa | 0 mm | 0.89 m/s, 328° | - | - |
| 1778027387 | 8.89° C | 91% | 1006.5 hPa | 0 mm | 1.34 m/s, 80° | - | - |
| 1778027087 | 8.89° C | 91% | 1006.4 hPa | 0 mm | 0.89 m/s, 79° | - | - |
| 1778026787 | 8.89° C | 91% | 1006.3 hPa | 0 mm | 1.79 m/s, 62° | - | - |
| 1778026487 | 8.89° C | 91% | 1006 hPa | 0 mm | 1.34 m/s, 72° | - | - |
| 1778026187 | 8.89° C | 91% | 1006.2 hPa | 0 mm | 1.79 m/s, 123° | - | - |
| 1778025887 | 8.89° C | 90% | 1005.8 hPa | 0 mm | 1.34 m/s, 350° | - | - |
| 1778025587 | 8.89° C | 90% | 1006.2 hPa | 0 mm | 1.79 m/s, 72° | - | - |
| 1778025287 | 9.44° C | 89% | 1006 hPa | 0 mm | 1.79 m/s, 79° | - | - |
| 1778024987 | 9.44° C | 89% | 1006 hPa | 0 mm | 4.02 m/s, 39° | - | - |
| 1778024687 | 9.44° C | 89% | 1005.7 hPa | 0 mm | 1.79 m/s, 2° | - | - |
| 1778024387 | 9.44° C | 89% | 1005.8 hPa | 0 mm | 2.24 m/s, 54° | - | - |
| 1778024087 | 9.44° C | 89% | 1005.5 hPa | 0 mm | 2.68 m/s, 37° | - | - |
| 1778023787 | 9.44° C | 89% | 1005.5 hPa | 0 mm | 3.13 m/s, 89° | - | - |
| 1778023487 | 9.44° C | 90% | 1005.7 hPa | 0 mm | 1.79 m/s, 80° | - | - |
| 1778023187 | 9.44° C | 89% | 1005.3 hPa | 0 mm | 2.68 m/s, 84° | - | - |
| 1778022887 | 9.44° C | 90% | 1005.1 hPa | 0 mm | 1.34 m/s, 72° | - | - |
| 1778022587 | 9.44° C | 90% | 1005.3 hPa | 0 mm | 0.89 m/s, 39° | - | - |
| 1778022287 | 10° C | 90% | 1005.2 hPa | 0 mm | 1.34 m/s, 61° | - | - |
| 1778021987 | 10° C | 90% | 1005.3 hPa | 0 mm | 1.34 m/s, 28° | - | - |
| 1778021687 | 10° C | 90% | 1005.2 hPa | 0 mm | 0.45 m/s, 253° | - | - |
| 1778021387 | 10° C | 91% | 1005.2 hPa | 0 mm | 0.89 m/s, 324° | - | - |
| 1778021087 | 10° C | 90% | 1005.5 hPa | 0 mm | 2.24 m/s, 15° | - | - |
| 1778020787 | 10° C | 90% | 1005.3 hPa | 0 mm | 0.89 m/s, 292° | - | - |
| 1778020487 | 10° C | 90% | 1005.2 hPa | 0 mm | 1.34 m/s, 306° | - | - |
* Rain latest hour (hover to see other rain measurements)
** Current wind speed in m/s (hover to see current wind gust speed)